Location: Four Corners
(38.2757°N, 122.4608°W)
Time: 10:41:47
(UTC+00:00)

CZ-4 R/B - Pass Details

Date: 08 December 2019
Orbit: 533 x 598 km, 97.7° (Epoch: 25 January)

Event Time Altitude Azimuth Distance (km) Brightness Sun altitude
Rises 02:37:25 0° 170° (S) 2,730 4.9 -20.6°
Reaches altitude 10° 02:39:34 10° 172° (S) 1,829 4.0 -21.0°
Maximum altitude 02:43:30 76° 258° (WSW) 569 1.4 -21.8°
Drops below altitude 10° 02:47:25 10° 344° (NNW) 1,811 4.0 -22.5°
Sets 02:49:32 0° 346° (NNW) 2,700 4.9 -22.9°
